Preview of NWS' New Version of Forecast
This preview is not operational and should not be used for support decisions.

Regional Weather Roundup (RWR)

Issued by Philadelphia/Mt Holly (PHI)

                            
000
ASUS41 KPHI 170412
RWRPHI

REGIONAL WEATHER ROUNDUP
NATIONAL WEATHER SERVICE MOUNT HOLLY NJ
1200 AM EDT TUE SEP 17 2019

NOTE:  "FAIR" INDICATES FEW OR NO CLOUDS BELOW 12,000 FEET WITH NO
SIGNIFICANT WEATHER AND/OR OBSTRUCTIONS TO VISIBILITY.

 * = STATION DOES NOT REPORT PRECIPITATION (E.G. RAIN, SNOW, ETC.) 
        OR FOG.

NJZ015>026-170500-
SOUTHERN NEW JERSEY
  
CITY           SKY/WX    TMP DP  RH WIND       PRES   REMARKS
POMONA         MOCLDY    68  65  90 NE3       30.03S                  
WILDWOOD*      MOCLDY    70  68  93 NE5       30.02S                  
MILLVILLE      MOCLDY   N/A N/A N/A CALM      30.03R                  
WRIGHTSTOWN    FAIR      67  64  91 CALM      30.04S                  
MOUNT HOLLY    CLOUDY    66  64  93 CALM      30.04R                  
TRENTON        CLOUDY    69  64  84 N3        30.05R                  

$$
NJZ001>014-170500-
NORTHERN NEW JERSEY
  
CITY           SKY/WX    TMP DP  RH WIND       PRES   REMARKS
SUSSEX         FAIR      58  57  97 CALM      30.09S                  
ANDOVER*         N/A     61  60  97 CALM      30.09R                  
MORRISTOWN     FAIR      63  63 100 CALM      30.07R                  
NEWARK         MOCLDY    72  64  76 CALM      30.05S                  
TETERBORO      MOCLDY    69  61  75 N3        30.05R                  
CALDWELL       FAIR      67  64  90 CALM      30.08R                  
SOMERVILLE     CLOUDY    67  65  93 CALM      30.04R                  
ALLAIRE*       CLOUDY    68  67  96 NE5       30.06S                  
TOMS RIVER*    CLOUDY    67  32  27 CALM      30.05R                  

$$
PAZ043-044-047-054-055-060>062-066>071-170500-
EASTERN PENNSYLVANIA
  
CITY           SKY/WX    TMP DP  RH WIND       PRES   REMARKS
PHILADELPHIA   CLOUDY    69  64  84 NE5       30.05R                  
NORTH PHILA    CLOUDY    71  62  73 CALM      30.06R                  
BLUE BELL*     MOCLDY    63  62  97 CALM      30.06S                  
DOYLESTOWN     FAIR      68  63  84 NE5       30.06R                  
QUAKERTOWN*    PTCLDY    66  64  94 CALM      30.07                   
PERKASIE*      FAIR      64  64 100 CALM      30.08R                  
POTTSTOWN      CLOUDY    67  65  93 NE5       30.07S                  
LANCASTER      CLOUDY    71  63  75 NE8       30.05R                  
COATESVILLE    FAIR      68  64  88 CALM      30.07S                  
WEST CHESTER   CLOUDY    70  63  78 NE3       30.06R                  
READING        NOT AVBL                                               
ALLENTOWN      FAIR      67  62  84 NE3       30.07R                  
QN CITY/ALNTWN FAIR      68  64  88 CALM      30.08R                  
MOUNT POCONO   FAIR      56  50  80 N10       30.12R                  
HAZLETON       FAIR      57  55  94 CALM      30.14S                  
LEHIGHTON      FAIR      59  59 100 CALM      30.09R FOG              
WILKES BARRE   FAIR      61  56  83 E6        30.11R                  

$$
DEZALL-MDZ008-012-015-019-020-170500-
DELAWARE AND EASTERN MARYLAND
  
CITY           SKY/WX    TMP DP  RH WIND       PRES   REMARKS
WILMINGTON     CLOUDY    73  65  75 E8        30.04R                  
DOVER          DRIZZLE   71  66  83 NE5       30.01R                  
CHESWOLD         N/A     72  68  88 MISG      30.02R FOG              
GEORGETOWN     CLOUDY    72  68  87 CALM      30.01S                  
EASTON         FAIR      73  68  82 CALM      30.04S                  
STEVENSVILLE   CLOUDY    75  68  78 CALM      30.00F                  
PATUXENT       CLOUDY    74  70  87 CALM      29.99                   
OCEAN CITY     CLOUDY    74  70  87 MISG      30.00F                  
WALLOPS ISLAND CLOUDY    73  69  87 CALM      29.99F                  
CAMBRIDGE      CLEAR     70  68  94 CALM      30.00S                  
SALISBURY      MOCLDY    70  66  87 CALM      30.00S                  

$$
PAZ001-021-NYZ056-072-MDZ011-DCZ001-170500-
OTHER NEARBY LOCATIONS
  
CITY           SKY/WX    TMP DP  RH WIND       PRES   REMARKS
HARRISBURG     CLOUDY    73  62  68 NE6       30.05R                  
STATE COLLEGE  CLOUDY    66  63  90 NE6       30.11R                  
WILLIAMSPORT   MOCLDY    67  58  72 CALM      30.08S                  
BINGHAMTON     FAIR      53  47  79 NE8       30.13S                  
NEW YORK CITY  FAIR      70  61  73 VRB6      30.09R                  
BALTIMORE      MOCLDY    77  63  61 NE5       30.01S                  
WASHINGTON DC  FAIR      78  63  59 NE10      30.01R                  

$$